ERH225 PABR-PABR

Flight info

Callsign ERH225
Flight time N/A
Altitude 10000
Route PABR
Aircraft EC25/L-VGD/C

Departure

Time 2026-04-24 08:59
Airport Wiley Post Will Rogers Memorial Airport (PABR)

Arrival

Time N/A
Airport Wiley Post Will Rogers Memorial Airport (PABR)
Time Latitude Longitude Altitude Speed Heading
2026-04-24 08:58 71.28103 -156.79392 1315 ft 45 kts 211°
2026-04-24 08:58 71.28015 -156.80312 1438 ft 46 kts 217°
2026-04-24 08:59 71.27875 -156.81906 1314 ft 104 kts 248°
2026-04-24 08:59 71.27746 -156.84533 1028 ft 137 kts 258°
2026-04-24 08:59 71.27686 -156.87216 1193 ft 108 kts 265°
2026-04-24 08:59 71.27729 -156.89282 1079 ft 86 kts 272°
2026-04-24 09:00 71.27750 -156.90934 935 ft 67 kts 262°
2026-04-24 09:00 71.27735 -156.92207 828 ft 53 kts 255°
2026-04-24 09:00 71.27673 -156.93373 757 ft 113 kts 247°
2026-04-24 09:00 71.27527 -156.95990 903 ft 116 kts 255°
2026-04-24 09:01 71.27432 -156.98487 1200 ft 119 kts 253°
2026-04-24 09:01 71.27318 -157.00962 1317 ft 122 kts 251°
2026-04-24 09:01 71.27096 -157.03734 826 ft 140 kts 251°
2026-04-24 09:01 71.26808 -157.06701 627 ft 135 kts 250°
2026-04-24 09:02 71.26684 -157.09352 729 ft 117 kts 270°
2026-04-24 09:02 71.26761 -157.11777 798 ft 106 kts 277°
2026-04-24 09:02 71.26906 -157.14123 1014 ft 118 kts 275°
2026-04-24 09:02 71.27083 -157.16551 1417 ft 113 kts 277°
2026-04-24 09:03 71.27265 -157.19045 1597 ft 119 kts 277°
2026-04-24 09:03 71.27368 -157.21528 1789 ft 114 kts 269°
2026-04-24 09:03 71.27376 -157.21829 1810 ft 114 kts 268°
2026-04-24 09:03 71.27413 -157.24338 1969 ft 118 kts 265°
2026-04-24 09:04 71.27454 -157.26725 2313 ft 113 kts 264°
2026-04-24 09:04 71.27445 -157.29298 2376 ft 122 kts 260°
2026-04-24 09:04 71.27384 -157.31926 2541 ft 119 kts 256°
2026-04-24 09:04 71.27290 -157.34372 2812 ft 108 kts 252°
2026-04-24 09:05 71.27318 -157.36697 3004 ft 107 kts 270°
2026-04-24 09:05 71.27409 -157.38930 3256 ft 100 kts 269°
2026-04-24 09:05 71.27503 -157.40957 3550 ft 89 kts 269°
2026-04-24 09:05 71.27610 -157.42716 3849 ft 76 kts 270°
2026-04-24 09:06 71.27760 -157.44284 4028 ft 84 kts 279°
2026-04-24 09:06 71.27956 -157.46283 4064 ft 108 kts 278°
2026-04-24 09:06 71.28160 -157.48355 4527 ft 92 kts 271°
2026-04-24 09:06 71.28344 -157.50312 4929 ft 96 kts 278°
2026-04-24 09:07 71.28582 -157.52138 5484 ft 86 kts 272°
2026-04-24 09:07 71.28846 -157.53708 6073 ft 79 kts 283°
2026-04-24 09:07 71.29338 -157.56594 7284 ft 53 kts 270°
2026-04-24 09:08 71.29583 -157.57280 7868 ft 44 kts 275°
2026-04-24 09:08 71.29845 -157.57493 8394 ft 35 kts 218°